Date String (YYYY-MM-DD hh:mm:ss) UTC,Instrument flags,Ambient pressure (hPa),Sample flow (lpm),Bypass flow (lpm),Sample temperature (°C),Ambient temperature (°C),ASC tube jacket temperature (°C),LED temperature (°C),Box temperature (°C),Sample RH (%),Span deviation,Mass concentration (μg/m³),Mass concentration (μg/m³),Mass concentration (μg/m³)
DateTimeUTC,F1_M11,P_M11,Q1_M11,Q2_M11,T1_M11,T2_M11,T3_M11,T4_M11,T5_M11,U1_M11,ZSPAN_M11,X2_M11,X0_M11,X1_M11
2022-07-23 06:00:00,,0825.4,4.99,0.00,29.4,28.1,00.0,38.1,31.3,20.3,0000.0,0004.77,0009.88,0003.98
2022-07-23 06:01:00,,0825.4,5.00,0.00,29.4,28.2,00.0,38.1,31.4,20.2,0000.0,0004.73,0009.97,0003.95
2022-07-23 06:02:00,,0825.4,5.00,0.00,29.4,28.3,00.0,38.1,31.4,20.1,0000.0,0004.72,0009.86,0003.93
2022-07-23 06:03:00,,0825.4,5.00,0.00,29.5,28.4,00.0,38.2,31.5,20.0,0000.0,0004.70,0009.60,0003.92
2022-07-23 06:04:00,,0825.4,4.99,0.00,29.5,28.5,00.0,38.2,31.5,20.0,0000.0,0004.67,0009.58,0003.90
2022-07-23 06:05:00,,0825.4,5.00,0.00,29.5,28.6,00.0,38.2,31.6,20.0,0000.0,0004.64,0009.29,0003.87
2022-07-23 06:06:00,,0825.4,5.01,0.00,29.6,28.4,00.0,38.2,31.6,20.1,0000.0,0004.60,0009.52,0003.86
2022-07-23 06:07:00,,0825.4,4.99,0.00,29.6,27.7,00.0,38.2,31.5,19.9,0000.0,0004.57,0009.22,0003.84
2022-07-23 06:08:00,,0825.4,4.99,0.00,29.5,27.4,00.0,38.1,31.4,19.8,0000.0,0004.53,0009.37,0003.81
2022-07-23 06:09:00,,0825.4,5.00,0.00,29.5,27.4,00.0,38.2,31.3,19.9,0000.0,0004.55,0009.71,0003.80
2022-07-23 06:10:00,,0825.4,5.01,0.00,29.5,27.5,00.0,38.2,31.3,19.9,0000.0,0004.54,0009.71,0003.79
2022-07-23 06:11:00,,0825.4,5.00,0.00,29.4,27.6,00.0,38.2,31.3,19.9,0000.0,0004.56,0009.89,0003.80
2022-07-23 06:12:00,,0825.4,4.99,0.00,29.4,27.8,00.0,38.2,31.3,19.9,0000.0,0004.55,0010.52,0003.80
2022-07-23 06:13:00,,0825.5,5.01,0.00,29.5,27.9,00.0,38.2,31.4,19.9,0000.0,0004.53,0010.65,0003.80
2022-07-23 06:14:00,,0825.5,5.00,0.00,29.5,28.1,00.0,38.2,31.4,20.0,0000.0,0004.51,0010.60,0003.80
2022-07-23 06:15:00,,0825.5,5.00,0.00,29.5,28.2,00.0,38.2,31.5,20.1,0000.0,0004.51,0010.57,0003.80
2022-07-23 06:16:00,,0825.5,5.01,0.00,29.5,28.3,00.0,38.2,31.5,20.1,0000.0,0004.48,0010.54,0003.80
2022-07-23 06:17:00,,0825.5,4.99,0.00,29.6,28.4,00.0,38.3,31.5,20.3,0000.0,0004.49,0010.64,0003.80
2022-07-23 06:18:00,,0825.5,5.01,0.00,29.6,28.5,00.0,38.3,31.6,20.2,0000.0,0004.51,0010.75,0003.81
2022-07-23 06:19:00,,0825.5,5.00,0.00,29.6,28.2,00.0,38.3,31.6,20.3,0000.0,0004.55,0010.67,0003.84
2022-07-23 06:20:00,,0825.5,5.00,0.00,29.6,27.6,00.0,38.2,31.5,20.4,0000.0,0004.54,0010.41,0003.85
2022-07-23 06:21:00,,0825.5,5.00,0.00,29.6,27.5,00.0,38.2,31.4,20.2,0000.0,0004.55,0010.56,0003.86
2022-07-23 06:22:00,,0825.5,4.99,0.00,29.5,27.5,00.0,38.2,31.3,20.1,0000.0,0004.57,0011.39,0003.85
2022-07-23 06:23:00,,0825.4,5.01,0.00,29.5,27.6,00.0,38.2,31.3,20.1,0000.0,0004.55,0010.78,0003.85
2022-07-23 06:24:00,,0825.5,4.99,0.00,29.5,27.7,00.0,38.2,31.3,20.0,0000.0,0004.57,0010.65,0003.85
2022-07-23 06:25:00,,0825.5,5.00,0.00,29.5,27.8,00.0,38.2,31.4,19.9,0000.0,0004.61,0010.70,0003.86
2022-07-23 06:26:00,,0825.5,5.00,0.00,29.5,28.0,00.0,38.2,31.4,19.9,0000.0,0004.63,0010.72,0003.85
2022-07-23 06:27:00,,0825.5,5.00,0.00,29.5,28.1,00.0,38.2,31.4,19.9,0000.0,0004.65,0010.65,0003.85
2022-07-23 06:28:00,,0825.5,5.01,0.00,29.5,28.2,00.0,38.3,31.5,19.8,0000.0,0004.62,0009.78,0003.84
2022-07-23 06:29:00,,0825.5,5.00,0.00,29.6,28.3,00.0,38.3,31.5,19.8,0000.0,0004.64,0009.73,0003.83
2022-07-23 06:30:00,,0825.5,4.99,0.00,29.6,28.4,00.0,38.3,31.6,19.8,0000.0,0004.63,0009.73,0003.82
2022-07-23 06:31:00,,0825.5,5.01,0.00,29.6,28.5,00.0,38.3,31.6,19.7,0000.0,0004.61,0009.66,0003.81
2022-07-23 06:32:00,,0825.5,5.00,0.00,29.7,28.4,00.0,38.3,31.6,19.7,0000.0,0004.60,0009.53,0003.80
2022-07-23 06:33:00,,0825.4,5.00,0.00,29.7,27.6,00.0,38.3,31.5,19.7,0000.0,0004.56,0008.98,0003.80
2022-07-23 06:34:00,,0825.4,5.00,0.00,29.6,26.9,00.0,38.2,31.4,19.7,0000.0,0004.55,0009.11,0003.79
2022-07-23 06:35:00,,0825.4,4.99,0.00,29.5,26.8,00.0,38.2,31.2,19.7,0000.0,0004.53,0009.11,0003.78
2022-07-23 06:36:00,,0825.4,5.01,0.00,29.4,26.9,00.0,38.2,31.2,19.8,0000.0,0004.49,0009.05,0003.77
2022-07-23 06:37:00,,0825.4,5.00,0.00,29.4,27.0,00.0,38.2,31.1,19.9,0000.0,0004.48,0009.04,0003.76
2022-07-23 06:38:00,,0825.4,5.00,0.00,29.4,27.2,00.0,38.2,31.1,19.9,0000.0,0004.44,0008.92,0003.75
2022-07-23 06:39:00,,0825.4,5.00,0.00,29.4,27.4,00.0,38.2,31.2,19.9,0000.0,0004.47,0009.01,0003.76
2022-07-23 06:40:00,,0825.5,5.00,0.00,29.4,27.6,00.0,38.2,31.2,19.8,0000.0,0004.46,0009.04,0003.77
2022-07-23 06:41:00,,0825.4,5.00,0.00,29.4,27.8,00.0,38.2,31.2,19.8,0000.0,0004.44,0008.96,0003.76
2022-07-23 06:42:00,,0825.5,5.00,0.00,29.4,27.9,00.0,38.2,31.3,19.8,0000.0,0004.47,0009.11,0003.77
2022-07-23 06:43:00,,0825.5,5.01,0.00,29.4,28.0,00.0,38.2,31.3,19.7,0000.0,0004.47,0009.19,0003.76
2022-07-23 06:44:00,,0825.5,4.99,0.00,29.4,28.2,00.0,38.2,31.4,20.0,0000.0,0004.50,0008.85,0003.77
2022-07-23 06:45:00,,0825.6,5.00,0.00,29.5,28.3,00.0,38.2,31.4,20.5,0000.0,0004.53,0008.48,0003.80
2022-07-23 06:46:00,,0825.6,5.00,0.00,29.5,28.4,00.0,38.2,31.5,20.7,0000.0,0004.60,0008.56,0003.83
2022-07-23 06:47:00,,0825.5,5.00,0.00,29.5,28.5,00.0,38.3,31.5,20.9,0000.0,0004.67,0008.67,0003.86
2022-07-23 06:48:00,,0825.5,5.01,0.00,29.6,28.5,00.0,38.3,31.6,20.8,0000.0,0004.67,0008.89,0003.90
2022-07-23 06:49:00,,0825.5,4.99,0.00,29.6,28.6,00.0,38.3,31.6,20.9,0000.0,0004.68,0009.02,0003.93
2022-07-23 06:50:00,,0825.5,5.00,0.00,29.6,28.2,00.0,38.3,31.6,20.9,0000.0,0004.72,0009.11,0003.96
2022-07-23 06:51:00,,0825.5,5.01,0.00,29.6,27.6,00.0,38.2,31.5,20.9,0000.0,0004.72,0009.02,0003.97
2022-07-23 06:52:00,,0825.5,4.99,0.00,29.6,27.4,00.0,38.2,31.4,21.2,0000.0,0004.77,0009.25,0004.00
2022-07-23 06:53:00,,0825.5,5.01,0.00,29.5,27.4,00.0,38.2,31.3,21.3,0000.0,0004.78,0009.17,0004.04
2022-07-23 06:54:00,,0825.5,4.99,0.00,29.5,27.6,00.0,38.2,31.3,21.7,0000.0,0004.84,0009.09,0004.08
2022-07-23 06:55:00,,0825.5,5.00,0.00,29.5,27.7,00.0,38.2,31.3,22.2,0000.0,0004.93,0009.36,0004.14
2022-07-23 06:56:00,,0825.5,5.01,0.00,29.5,27.8,00.0,38.2,31.4,22.6,0000.0,0005.04,0009.66,0004.21
2022-07-23 06:57:00,,0825.4,5.00,0.00,29.5,28.0,00.0,38.2,31.4,22.6,0000.0,0005.12,0009.76,0004.28
2022-07-23 06:58:00,,0825.5,5.00,0.00,29.5,28.1,00.0,38.3,31.4,22.6,0000.0,0005.19,0010.38,0004.34
2022-07-23 06:59:00,,0825.5,5.00,0.00,29.5,28.2,00.0,38.3,31.5,22.7,0000.0,0005.26,0010.22,0004.41
